Dewpoint
-3 -3 -5 -8 -8 -6 -5 -3 -2 -2 -3 -3 -2 -2 -2 -4 -12 -11 -9 -5 -10 -14 -12 -10 -9 -8 -8 -9 -7 -6 -8 -9 -8 -7 -9 -12 -12 -13 -13 -13 -13 -14 -15 -15
-3 -1 -9 -10 -8 -6 -4 -2 -1 -2 -4 -3 -2 -1 -3 -11 -12 -11 -8 -7 -8 -12 -11 -9 -8 -8 -8 -8 -6 -7 -9 -8 -7 -7 -9 -12 -13 -13 -13 -12 -12 -13 -14 -14
-5 -6 -10 -8 -6 -4 -3 -1 -1 -2 -3 -2 -1 -0 -2 -11 -13 -10 -10 -9 -12 -12 -12 -9 -8 -8 -8 -7 -6 -8 -9 -7 -6 -8 -8 -12 -13 -13 -12 -12 -12 -13 -13 -13
-5 -8 -7 -6 -4 -3 -2 -4 -3 -2 -1 1 -2 2 -2 -8 -11 -10 -10 -10 -11 -11 -10 -9 -9 -8 -8 -7 -7 -8 -8 -6 -6 -7 -8 -11 -13 -13 -12 -12 -12 -13 -13 -13
-8 -4 -4 -3 -3 -5 -2 -4 -3 -2 -3 -2 0 -1 -1 -3 -6 -11 -10 -11 -10 -11 -11 -10 -10 -9 -8 -7 -7 -9 -8 -8 -7 -7 -8 -11 -12 -12 -12 -12 -12 -12 -12 -13
-6 -8 -5 -5 -6 -6 -5 1 -2 -2 1 0 -2 -1 1 -1 -7 -11 -11 -11 -12 -10 -11 -11 -9 -9 -8 -8 -8 -9 -9 -8 -8 -7 -8 -10 -12 -12 -12 -12 -12 -12 -12 -12
-1 -3 -6 -6 -1 -2 -2 -2 -1 -1 1 1 -0 -1 1 -4 -9 -12 -11 -12 -13 -12 -11 -12 -10 -9 -9 -10 -10 -10 -8 -7 -7 -6 -7 -9 -10 -11 -11 -11 -11 -11 -11 -12
-1 -4 -3 -6 -2 -3 -1 -3 -1 -3 2 2 -0 1 1 -10 -13 -11 -10 -10 -12 -13 -12 -11 -10 -9 -10 -11 -10 -9 -7 -6 -5 -5 -6 -8 -9 -9 -10 -9 -10 -10 -11 -11
1 -1 -7 -7 -7 -2 -0 2 -1 -2 -1 2 1 -0 -4 -13 -13 -8 -6 -7 -7 -10 -12 -12 -11 -11 -11 -10 -9 -6 -3 -3 -3 -4 -5 -7 -8 -8 -9 -11 -11 -11 -11 -12
-0 -2 -4 -7 -5 -5 -2 -3 -0 -1 2 4 3 1 2 -6 -5 -2 -1 -1 -1 -2 -6 -8 -11 -10 -9 -7 -5 -3 -2 -2 -2 -4 -5 -7 -9 -11 -11 -6 -2 -1 -6 -10
-2 -2 -2 -4 -2 -3 -2 -4 -2 -1 1 4 4 2 -2 -1 -1 -1 -1 -3 -4 -3 -2 -1 -3 -6 -6 -3 -1 -1 -2 -2 -4 -5 -7 -10 -8 -5 -3 -1 -2 -4 -5 -11
-1 -2 -1 -0 -5 -5 -4 -3 -3 2 -1 0 2 2 -2 -1 -1 -1 -3 -3 -4 -5 -4 -2 -3 -2 -2 -2 -2 -2 -3 -5 -6 -7 -5 -3 -3 -5 -11 -13 -13 -14 -14 -15
-2 -2 -1 -2 -3 -4 -4 -5 -4 -1 -0 3 4 3 -2 -1 -1 -3 -2 -3 -4 -5 -3 -4 -4 -4 -4 -3 -4 -5 -6 -5 -4 -4 -4 -8 -10 -13 -14 -15 -15 -15 -15 -16
-2 -1 -2 -1 -3 -2 -2 0 1 1 2 1 2 1 1 -0 -1 -1 -1 -4 -4 -4 -4 -4 -5 -5 -5 -4 -3 -3 -4 -5 -8 -10 -11 -12 -13 -13 -14 -14 -14 -15 -15 -15
-3 -1 0 0 0 -0 -1 1 1 2 3 4 2 -0 1 -1 -1 -1 -1 -1 -2 -3 -5 -5 -5 -5 -6 -6 -7 -8 -9 -10 -11 -11 -12 -13 -13 -13 -14 -14 -14 -14 -15 -15
-3 1 -1 -1 0 -0 1 1 1 1 1 1 1 2 -1 -1 -2 -1 -2 -2 -3 -4 -5 -5 -5 -7 -9 -9 -9 -9 -9 -10 -10 -11 -12 -13 -13 -14 -15 -16 -16 -17 -17 -16
-1 1 2 3 2 2 3 1 0 -3 -6 -1 3 -0 -2 -2 -2 -2 -2 -3 -3 -4 -5 -8 -9 -9 -9 -9 -8 -8 -9 -10 -11 -12 -13 -15 -17 -18 -18 -18 -18 -18 -18 -17
1 1 2 3 3 3 -5 -7 -8 -3 -2 -2 -2 -2 -2 -2 -3 -3 -3 -4 -5 -7 -8 -10 -9 -9 -8 -8 -8 -9 -10 -11 -12 -14 -17 -18 -19 -19 -19 -18 -18 -17 -16 -15
-1 1 2 2 2 0 -1 -3 -4 -3 -1 -3 -5 -5 -4 -4 -3 -4 -4 -5 -5 -5 -5 -5 -6 -6 -6 -7 -8 -10 -11 -12 -15 -18 -19 -19 -19 -18 -18 -17 -16 -15 -15 -12
-1 -0 2 2 2 1 -4 -5 -5 -5 -2 -3 -4 -5 -6 -5 -5 -8 -5 -6 -5 -5 -4 -4 -5 -5 -7 -9 -9 -10 -12 -16 -18 -19 -19 -19 -18 -17 -16 -15 -15 -15 -14 -13
-2 -1 1 1 2 1 -3 -2 -4 -1 -4 -4 -6 -6 -7 -9 -7 -5 -5 -4 -5 -5 -5 -5 -6 -7 -8 -9 -10 -13 -17 -18 -19 -19 -19 -17 -16 -16 -15 -15 -15 -14 -14 -14
-2 -2 -3 -3 -2 -4 -3 -3 -2 -3 -4 -7 -8 -5 -6 -8 -7 -6 -7 -6 -6 -6 -7 -8 -8 -8 -9 -11 -13 -17 -18 -19 -19 -18 -17 -16 -15 -15 -15 -14 -14 -14 -14 -14
-5 -2 -1 -3 -4 -3 -3 -2 -4 -5 -6 -7 -8 -6 -6 -9 -10 -10 -9 -9 -8 -8 -8 -8 -9 -10 -11 -15 -17 -18 -19 -19 -18 -17 -16 -15 -15 -15 -14 -14 -14 -14 -14 -14
-7 -5 -5 -3 -2 -3 -4 -6 -7 -11 -12 -11 -10 -10 -10 -10 -9 -9 -9 -9 -8 -8 -8 -9 -10 -12 -14 -17 -18 -18 -18 -18 -17 -16 -15 -14 -14 -14 -14 -14 -14 -13 -13 -13
-6 -6 -6 -4 -3 -4 -4 -6 -8 -11 -11 -10 -9 -9 -9 -9 -9 -9 -8 -8 -8 -8 -10 -11 -12 -14 -15 -17 -18 -18 -18 -17 -16 -15 -14 -14 -14 -14 -14 -14 -14 -13 -13 -12
-7 -7 -7 -6 -6 -4 -5 -4 -11 -11 -10 -10 -9 -9 -8 -8 -8 -8 -8 -8 -8 -9 -11 -12 -14 -15 -16 -17 -18 -18 -17 -16 -15 -15 -14 -14 -14 -14 -13 -13 -13 -14 -12 -12
Wind_Speed
3 5 1 2 1 1 3 1 3 4 2 7 1 8 13 14 12 13 14 16 17 23 19 19 21 21 22 22 22 21 19 17 13 12 10 8 6 4 2 1 3 5 7 10
5 1 2 2 1 2 1 2 5 5 4 2 6 11 5 4 4 9 13 2 13 19 20 23 24 22 22 23 22 22 19 16 12 11 9 8 8 7 4 2 2 4 6 8
3 2 2 2 1 1 2 3 1 4 8 0 8 4 4 1 5 14 15 6 9 20 24 27 27 24 22 23 23 22 20 16 13 12 10 9 9 7 6 4 3 5 6 7
4 2 2 1 1 3 2 2 1 2 4 3 4 4 4 2 4 6 13 12 2 18 25 27 27 25 22 21 21 21 20 17 13 11 10 9 9 8 7 6 6 6 7 8
2 2 2 3 2 1 3 2 1 3 4 4 1 4 6 2 2 4 8 9 5 5 22 28 27 25 22 20 21 20 18 16 13 11 10 9 9 9 9 7 7 8 9 10
2 1 2 0 1 1 3 3 4 4 2 2 4 4 5 0 1 2 3 8 8 2 11 24 27 24 21 19 19 20 19 17 15 12 10 9 9 9 8 8 9 10 10 11
1 1 0 1 1 2 4 5 4 5 4 5 3 2 7 2 1 2 4 6 7 6 3 18 25 25 22 20 18 18 17 16 15 13 11 9 8 8 8 9 10 11 12 13
3 5 4 2 3 5 2 5 5 5 3 4 1 6 4 1 7 9 9 8 8 9 5 11 20 23 20 18 17 16 15 15 14 12 10 8 8 8 8 9 10 12 13 14
4 4 1 3 2 2 2 2 3 6 1 1 3 6 2 4 6 11 14 15 14 10 7 6 11 15 16 16 15 13 12 12 11 10 9 9 9 9 9 9 9 11 15 17
3 2 2 1 2 3 3 1 3 2 0 5 5 5 4 5 3 5 10 12 12 12 7 3 6 11 12 14 14 11 9 9 8 9 9 9 9 9 8 10 15 22 19 18
3 3 1 1 6 7 1 1 3 3 4 5 3 5 3 4 4 4 5 7 9 9 7 6 4 10 12 11 9 7 5 5 6 7 8 8 9 11 15 23 19 18 20 20
1 5 3 6 1 1 2 5 4 4 5 4 2 5 3 7 4 3 4 7 9 9 8 5 6 10 12 12 11 9 7 5 4 6 10 15 19 16 14 17 18 20 23 24
6 1 3 6 4 2 2 4 3 3 2 6 5 5 4 2 2 6 9 9 8 7 8 10 12 13 12 11 9 8 7 7 10 12 12 12 15 18 20 22 24 25 27 28
7 3 8 8 6 5 2 5 6 6 3 3 7 14 8 3 3 5 3 2 4 6 8 8 8 7 6 2 3 7 9 10 11 12 13 16 19 21 24 26 27 28 28 30
3 6 6 7 8 5 8 9 10 12 15 12 17 7 3 7 4 2 2 3 2 0 6 7 5 4 4 5 7 6 8 11 14 17 19 21 23 24 26 27 27 28 29 29
3 4 1 5 10 10 20 13 12 16 19 18 15 13 5 6 4 1 3 2 2 4 6 5 3 5 3 1 3 7 11 15 19 21 23 24 25 26 26 27 28 29 30 31
5 3 3 17 5 5 11 16 17 2 2 2 8 3 3 2 0 4 2 1 5 7 5 8 5 3 2 5 11 16 20 23 25 26 26 26 26 27 28 29 30 31 32 33
8 4 2 9 1 15 5 2 4 9 5 6 9 4 3 3 2 5 5 6 7 9 5 2 4 5 9 13 17 21 23 26 27 27 26 27 28 29 30 31 31 32 32 31
7 7 5 6 8 2 2 4 3 4 3 3 5 2 2 0 9 4 7 7 5 2 4 8 7 10 13 18 20 24 26 26 26 27 28 28 29 31 31 31 31 30 30 29
2 1 4 1 5 6 2 2 4 3 3 6 6 2 2 7 2 3 0 4 5 5 8 9 8 13 17 19 24 27 27 26 26 27 29 29 29 29 29 29 28 26 24 25
3 2 6 8 7 1 3 3 5 3 4 6 8 7 6 3 1 2 6 6 7 7 7 8 12 16 20 23 26 25 25 25 27 29 28 27 25 25 24 23 21 21 22 22
3 2 4 1 3 6 2 3 4 7 11 12 9 5 4 3 3 7 8 8 7 10 10 13 17 20 22 24 25 25 25 26 27 26 25 23 21 19 19 20 20 20 21 22
3 4 2 5 3 2 3 6 14 18 17 9 3 0 3 5 7 8 10 10 10 12 14 17 21 23 21 21 22 24 24 25 26 24 22 19 17 18 19 18 19 20 21 23
4 4 3 2 2 4 13 18 13 11 12 9 3 3 5 8 8 10 11 12 12 13 17 20 21 21 21 19 19 22 23 25 24 23 20 17 17 20 17 16 17 20 23 24
6 2 3 4 3 11 13 17 13 12 7 4 2 4 6 9 10 12 12 13 15 17 18 20 21 23 23 22 21 21 23 23 23 21 19 18 18 20 19 17 18 22 25 22
7 6 4 5 13 6 15 11 12 7 3 1 5 6 8 10 10 12 13 15 18 19 20 21 21 22 22 22 22 21 21 22 21 21 19 19 20 20 20 20 22 24 24 21
Wind_Direction
32 67 107 168 91 111 131 201 270 259 39 348 285 296 302 322 13 353 323 250 228 223 219 207 201 204 207 204 198 194 192 191 195 196 195 192 193 196 190 32 10 8 8 8
26 96 177 145 132 132 177 280 290 285 8 9 339 306 291 345 357 7 9 326 223 206 200 197 198 203 207 201 196 194 194 197 199 198 205 210 209 214 222 233 306 341 353 357
141 151 149 179 105 46 235 201 236 247 324 88 320 326 350 340 34 29 32 23 204 199 192 191 196 202 203 201 199 198 199 200 200 203 213 221 222 227 236 255 286 314 326 338
92 192 192 151 191 128 280 128 97 302 35 279 26 273 299 337 12 20 22 37 53 200 193 192 196 200 204 205 204 203 204 204 207 213 222 229 235 241 245 254 272 293 313 325
230 169 185 212 207 146 224 11 272 117 88 47 328 72 268 301 335 12 10 30 42 204 208 198 202 205 202 208 210 211 211 213 218 224 230 236 242 245 249 262 284 295 303 310
91 48 43 9 335 242 353 90 49 53 95 22 241 114 285 204 347 352 39 37 28 19 211 210 202 202 201 206 213 218 221 225 231 239 245 248 250 256 264 273 282 289 293 297
79 227 247 38 94 4 66 56 333 351 5 226 182 33 247 282 327 4 87 68 49 38 170 199 201 200 205 210 216 222 229 235 241 247 251 255 258 263 270 277 281 283 288 291
147 307 171 19 147 181 76 138 153 246 235 280 230 243 258 63 68 77 84 71 60 57 80 187 197 201 209 214 219 227 236 244 248 252 260 269 275 279 278 279 283 288 290 293
151 271 77 53 71 89 173 180 144 99 44 41 250 285 327 106 62 49 47 50 42 51 76 129 192 207 214 217 224 232 245 250 257 271 283 283 281 278 280 285 293 300 300 293
179 349 18 103 91 38 142 147 65 11 260 242 273 273 231 173 100 63 45 48 47 48 53 81 202 212 220 223 228 234 248 265 275 283 278 275 274 277 278 286 299 299 293 296
133 108 256 128 199 181 44 336 33 124 171 203 268 256 211 159 134 118 84 51 44 28 15 1 307 227 220 205 202 213 232 258 264 271 271 272 274 278 284 297 299 293 292 293
148 146 217 223 295 114 199 212 157 147 249 235 219 265 75 127 150 174 109 66 52 49 53 89 126 151 148 156 165 181 197 228 264 289 299 304 303 315 315 301 294 291 289 288
197 258 352 322 359 30 216 227 169 124 78 211 214 261 177 214 225 93 74 68 60 67 94 118 127 129 141 159 175 191 216 253 280 290 313 322 311 302 297 293 291 290 289 288
161 181 184 225 206 134 192 204 208 184 196 234 232 274 204 203 158 92 93 22 42 58 98 134 148 142 148 175 279 314 326 332 337 324 312 305 301 297 296 296 294 293 291 290
153 217 211 241 238 192 212 220 193 209 239 247 272 236 160 160 171 175 314 326 326 236 146 142 136 110 82 45 30 7 340 325 318 317 315 311 306 302 300 298 296 294 292 291
181 269 171 258 246 247 258 252 238 241 248 255 265 273 131 150 157 296 12 344 234 202 155 138 107 114 107 60 343 334 331 327 324 320 316 311 306 303 300 298 296 295 294 293
175 204 207 274 200 257 261 229 230 229 167 185 239 117 130 143 283 349 341 161 164 164 145 126 154 168 257 314 323 325 325 325 323 321 317 313 311 308 306 304 301 300 297 295
229 178 219 281 107 263 299 279 168 111 78 77 90 108 182 184 138 136 122 121 131 134 139 211 270 296 290 299 312 316 317 319 318 315 314 314 313 311 311 308 306 303 303 301
246 228 252 249 233 280 158 201 169 137 148 170 138 166 246 307 144 77 119 132 165 205 313 322 301 302 292 305 312 314 318 317 314 315 315 316 317 314 311 309 308 307 304 301
14 28 221 211 257 251 205 78 95 118 185 161 141 114 23 127 132 254 107 352 343 332 319 309 296 292 302 308 311 315 315 314 314 316 318 320 318 315 313 311 311 311 309 308
317 314 253 262 268 300 153 149 109 183 193 149 133 118 70 85 112 339 331 326 308 302 311 288 285 297 308 310 311 314 314 317 318 318 319 318 316 314 313 314 315 315 314 313
212 227 232 311 279 292 146 118 200 130 126 138 141 136 110 54 333 314 309 307 297 303 299 294 300 306 312 311 311 312 315 314 314 317 319 319 319 320 320 317 316 318 319 319
289 205 241 206 240 17 334 116 127 133 140 145 127 222 345 334 322 318 318 313 306 308 307 308 307 308 310 308 309 311 314 314 317 321 323 323 321 323 319 318 321 320 321 319
277 194 228 342 132 118 114 119 120 125 111 98 68 2 340 314 319 317 315 304 306 309 308 308 307 308 312 311 313 314 315 316 318 321 323 320 318 328 325 315 319 324 326 320
216 359 234 251 105 136 158 151 156 142 123 97 16 331 311 310 312 308 308 311 313 315 313 312 316 316 318 315 317 317 314 314 317 318 319 319 318 325 322 318 323 329 325 318
212 215 168 234 191 159 182 174 149 131 127 351 335 329 308 299 300 302 309 313 313 315 315 314 314 312 312 312 315 315 312 312 312 313 314 318 320 324 323 320 316 323 324 310
Height
1505 1512 1518 1518 1519 1519 1520 1522 1523 1518 1515 1512 1508 1508 1498 1492 1490 1487 1484 1484 1487 1491 1496 1500 1504 1508 1511 1514 1517 1521 1525 1527 1529 1530 1531 1532 1532 1533 1533 1533 1533 1533 1532 1531
1511 1515 1517 1518 1518 1518 1520 1522 1524 1516 1515 1519 1512 1506 1496 1493 1491 1488 1483 1482 1485 1489 1494 1499 1503 1507 1509 1512 1516 1520 1523 1526 1528 1529 1530 1531 1531 1531 1532 1532 1532 1531 1531 1530
1512 1517 1517 1517 1519 1519 1519 1520 1521 1525 1522 1518 1518 1503 1497 1493 1491 1489 1487 1484 1485 1488 1491 1496 1501 1505 1508 1511 1514 1518 1521 1524 1526 1527 1528 1529 1529 1529 1530 1530 1530 1530 1530 1529
1517 1517 1517 1518 1518 1522 1518 1520 1523 1525 1531 1533 1523 1523 1499 1494 1493 1493 1491 1489 1488 1490 1492 1496 1500 1504 1507 1512 1515 1518 1520 1523 1524 1526 1526 1527 1527 1527 1528 1528 1528 1528 1528 1527
1514 1518 1518 1518 1517 1519 1521 1522 1524 1526 1545 1549 1525 1541 1503 1496 1493 1496 1494 1492 1492 1491 1493 1494 1498 1503 1507 1511 1514 1518 1520 1522 1524 1525 1525 1526 1526 1526 1526 1526 1526 1526 1525 1525
1520 1520 1520 1520 1520 1520 1522 1522 1526 1533 1536 1548 1540 1532 1511 1498 1495 1495 1495 1494 1493 1492 1493 1497 1501 1505 1509 1511 1513 1516 1518 1521 1522 1523 1524 1524 1524 1524 1525 1524 1524 1523 1523 1522
1520 1520 1521 1521 1520 1521 1523 1528 1547 1542 1544 1532 1530 1536 1505 1497 1496 1496 1496 1497 1496 1494 1492 1495 1500 1504 1508 1510 1513 1515 1517 1519 1520 1521 1521 1522 1522 1522 1522 1522 1521 1521 1520 1519
1527 1523 1521 1522 1525 1527 1524 1535 1548 1542 1536 1523 1526 1525 1506 1498 1498 1498 1498 1499 1499 1499 1497 1498 1501 1504 1508 1510 1513 1514 1516 1517 1518 1518 1519 1520 1520 1520 1519 1519 1518 1518 1517 1516
1525 1514 1522 1523 1524 1526 1526 1531 1530 1554 1557 1546 1524 1508 1499 1498 1500 1501 1500 1500 1501 1501 1501 1502 1504 1507 1508 1510 1512 1513 1514 1515 1516 1517 1517 1517 1517 1516 1516 1515 1515 1514 1513 1511
1514 1525 1522 1525 1524 1527 1528 1529 1536 1550 1556 1532 1516 1520 1502 1497 1504 1504 1502 1502 1502 1502 1502 1503 1505 1506 1507 1509 1511 1512 1513 1513 1514 1513 1513 1513 1513 1513 1513 1512 1511 1510 1509 1507
1519 1523 1523 1524 1525 1526 1534 1540 1539 1537 1536 1529 1526 1510 1506 1505 1505 1505 1504 1503 1502 1502 1501 1502 1503 1504 1505 1507 1509 1511 1512 1513 1511 1510 1510 1510 1510 1509 1509 1508 1507 1506 1504 1502
1515 1526 1531 1513 1526 1526 1527 1525 1527 1528 1534 1535 1524 1506 1504 1505 1505 1505 1504 1505 1505 1502 1499 1499 1502 1503 1505 1506 1507 1508 1508 1509 1509 1509 1509 1508 1507 1506 1505 1504 1502 1501 1498 1496
1514 1524 1537 1517 1527 1526 1528 1527 1526 1523 1525 1513 1510 1498 1506 1507 1506 1505 1503 1503 1503 1503 1500 1501 1503 1504 1505 1505 1506 1506 1506 1506 1506 1507 1506 1506 1504 1502 1499 1497 1495 1493 1491 1489
1507 1517 1513 1508 1506 1515 1523 1518 1516 1518 1518 1511 1496 1487 1503 1506 1505 1503 1503 1503 1502 1503 1502 1503 1503 1504 1505 1506 1506 1506 1507 1507 1506 1504 1502 1501 1500 1497 1494 1492 1489 1486 1484 1481
1509 1516 1508 1502 1498 1503 1503 1498 1505 1506 1494 1493 1476 1495 1491 1501 1504 1504 1504 1503 1502 1503 1503 1503 1504 1504 1505 1505 1506 1507 1506 1505 1503 1500 1498 1495 1493 1490 1487 1484 1481 1478 1475 1473
1508 1505 1507 1510 1494 1494 1485 1485 1488 1484 1481 1480 1483 1484 1494 1499 1500 1502 1501 1500 1502 1503 1503 1501 1503 1504 1505 1505 1504 1503 1501 1500 1497 1495 1492 1489 1486 1483 1479 1476 1473 1470 1466 1463
1505 1505 1504 1478 1486 1491 1480 1478 1475 1487 1493 1485 1478 1490 1495 1497 1498 1499 1499 1498 1499 1501 1501 1500 1502 1501 1501 1501 1500 1498 1496 1493 1491 1488 1484 1481 1478 1475 1472 1468 1465 1461 1458 1454
1493 1501 1498 1483 1489 1476 1484 1481 1482 1483 1487 1488 1488 1491 1494 1496 1497 1497 1497 1497 1498 1500 1499 1500 1501 1500 1500 1498 1496 1493 1490 1488 1484 1481 1478 1475 1471 1467 1463 1459 1455 1451 1448 1444
1490 1491 1490 1486 1480 1474 1481 1479 1481 1480 1487 1489 1490 1491 1493 1494 1496 1497 1497 1497 1499 1499 1500 1499 1498 1497 1496 1493 1490 1487 1485 1482 1478 1475 1471 1467 1463 1459 1455 1450 1447 1444 1440 1437
1490 1490 1488 1485 1479 1474 1480 1477 1477 1477 1488 1488 1489 1491 1491 1491 1499 1498 1497 1498 1498 1497 1497 1497 1495 1493 1491 1489 1485 1482 1478 1475 1472 1468 1464 1460 1456 1451 1447 1444 1439 1436 1434 1430
1494 1492 1487 1478 1472 1473 1477 1478 1478 1482 1490 1486 1488 1491 1493 1494 1495 1497 1496 1496 1495 1494 1493 1493 1490 1488 1486 1483 1478 1475 1471 1467 1464 1461 1457 1453 1450 1446 1441 1437 1434 1431 1428 1425
1500 1498 1500 1494 1489 1495 1478 1480 1481 1481 1484 1486 1489 1490 1490 1492 1494 1494 1492 1493 1491 1489 1488 1487 1485 1482 1480 1476 1472 1468 1465 1461 1458 1454 1451 1447 1444 1440 1436 1432 1429 1427 1423 1419
1500 1488 1488 1488 1482 1480 1479 1477 1481 1480 1483 1485 1489 1491 1489 1490 1490 1490 1489 1487 1486 1485 1483 1481 1479 1476 1474 1471 1466 1462 1459 1454 1450 1447 1444 1441 1438 1435 1431 1428 1425 1422 1419 1415
1487 1484 1489 1484 1481 1480 1480 1480 1483 1483 1484 1485 1489 1489 1487 1488 1487 1486 1484 1484 1482 1480 1478 1475 1473 1470 1467 1464 1460 1456 1452 1447 1444 1441 1439 1436 1433 1429 1426 1424 1422 1418 1414 1410
1486 1483 1480 1480 1480 1480 1481 1480 1480 1483 1484 1485 1486 1486 1485 1484 1483 1481 1480 1479 1476 1475 1472 1469 1466 1462 1459 1456 1454 1450 1445 1441 1438 1436 1434 1431 1428 1424 1421 1419 1417 1413 1410 1406
1477 1476 1480 1475 1468 1469 1476 1477 1480 1481 1482 1483 1482 1481 1482 1481 1479 1478 1475 1473 1471 1468 1466 1462 1460 1456 1453 1450 1447 1444 1440 1436 1433 1431 1429 1426 1422 1419 1416 1413 1410 1409 1405 1401